Location: Bellerive
(46.9237°N, 7.0223°E)
Time: 16:56:02
(UTC+00:00)

Cosmos 1328 - Pass Details

Date: 09 April 2020
Orbit: 540 x 544 km, 82.5° (Epoch: 23 May)

Event Time Altitude Azimuth Distance (km) Brightness Sun altitude
Rises 19:05:59 0° 349° (N) 2,722 7.9 -9.5°
Reaches altitude 10° 19:08:09 10° 349° (NNW) 1,824 7.0 -9.8°
Maximum altitude 19:12:10 79° 264° (W) 561 3.9 -10.5°
Drops below altitude 10° 19:16:08 10° 177° (S) 1,808 6.2 -11.1°
Sets 19:18:17 0° 176° (S) 2,695 7.1 -11.4°
